Location: Newark
(44.3449°N, 4.8694°E)
Time: 06:41:30
(UTC+00:00)

Envisat - Pass Details

Date: 29 January 2020
Orbit: 764 x 766 km, 98.1° (Epoch: 27 February)

Event Time Altitude Azimuth Distance (km) Brightness Sun altitude
Rises 18:18:46 0° 194° (SSW) 3,219 6.5 -16.8°
Reaches altitude 10° 18:21:21 10° 205° (SSW) 2,298 5.9 -17.3°
Maximum altitude 18:25:44 29° 265° (W) 1,378 5.1 -18.1°
Drops below altitude 10° 18:30:08 10° 325° (NW) 2,312 5.8 -18.8°
Sets 18:32:45 0° 337° (NNW) 3,243 6.5 -19.3°
